Weather History for Danville, IL

Change the Weather History Date:

Thursday, November 1, 2012

  Actual Average (KLAF) Record (KLAF)
Temperature  
Mean Temperature 43 °F 49 °F  
Max Temperature 55 °F 59 °F 77 °F (1999)
Min Temperature 31 °F 39 °F 23 °F (1993)
Degree Days  
Heating Degree Days 22 16  
Month to date heating degree days 16  
Since 1 July heating degree days 450  
Cooling Degree Days 0 0  
Month to date cooling degree days 0  
Year to date cooling degree days 982  
Moisture  
Dew Point 25 °F    
Average Humidity 55    
Maximum Humidity 83    
Minimum Humidity 25    
Precipitation  
Precipitation 0.00 in 0.09 in 2.13 in (1992)
Month to date precipitation 0.09  
Year to date precipitation 31.19  
Sea Level Pressure  
Sea Level Pressure 29.85 in    
Wind  
Wind Speed 8 mph (WNW)    
Max Wind Speed 16 mph    
Max Gust Speed 21 mph    
Visibility 10 miles    
Events      
T = Trace of Precipitation, MM = Missing Value Source: NWS Daily Summary

Daily Weather History Graph

Daily Weather History Graph

Search for Another Location

Airport:

Trip Planner

Search our weather history database for the weather conditions in past years. The results will help you decide how hot, cold, wet, or windy it might be!

Date:

Astronomy

Nov. 01, 2012 Rise Set
Actual Time 7:20 AM CDT 5:46 PM CDT
Civil Twilight 6:52 AM CDT 6:15 PM CDT
Nautical Twilight 6:19 AM CDT 6:47 PM CDT
Astronomical Twilight 5:48 AM CDT 7:18 PM CDT
Moon 7:43 PM CDT (11/1) 9:52 AM CDT (11/1)
Length of Visible Light 11h 23m
Length of Day
10h 26m
Waning Gibbous, 93% of the Moon is Illuminated
Nov 1
Waning Gibbous
Nov 6
Last Quarter
Nov 13
New
Nov 20
First Quarter
Nov 28
Full

Hourly Weather History & Observations

Time (CDT) Temp. Windchill Dew Point Humidity Pressure Visibility Wind Dir Wind Speed Gust Speed Precip Events Conditions
12:15 AM 34.3 °F 27.7 °F 22.5 °F 62% 29.85 in 10.0 mi WNW 8.1 mph - N/A   Clear
12:35 AM 33.3 °F 26.4 °F 22.6 °F 65% 29.85 in 10.0 mi WNW 8.1 mph - N/A   Clear
12:55 AM 32.9 °F 25.9 °F 22.6 °F 66% 29.85 in 10.0 mi WNW 8.1 mph - N/A   Clear
1:15 AM 32.4 °F 25.3 °F 22.6 °F 67% 29.85 in 10.0 mi WNW 8.1 mph - N/A   Unknown
1:35 AM 32.0 °F 24.8 °F 22.5 °F 68% 29.85 in 10.0 mi WNW 8.1 mph - N/A   Unknown
1:55 AM 32.0 °F 24.8 °F 22.1 °F 67% 29.86 in 10.0 mi WNW 8.1 mph - N/A   Unknown
2:15 AM 32.0 °F 24.8 °F 22.1 °F 67% 29.85 in 10.0 mi WNW 8.1 mph - N/A   Clear
2:35 AM 32.0 °F 24.8 °F 22.1 °F 67% 29.86 in 10.0 mi WNW 8.1 mph - N/A   Clear
2:55 AM 32.0 °F 24.8 °F 22.1 °F 67% 29.86 in 10.0 mi WNW 8.1 mph - N/A   Clear
3:15 AM 31.8 °F 24.6 °F 22.1 °F 67% 29.86 in 10.0 mi WNW 8.1 mph - N/A   Clear
3:35 AM 32.0 °F 24.8 °F 22.1 °F 67% 29.86 in 10.0 mi WNW 8.1 mph - N/A   Clear
3:55 AM 32.0 °F 24.2 °F 22.1 °F 67% 29.86 in 10.0 mi WNW 9.2 mph - N/A   Clear
4:15 AM 32.0 °F 24.8 °F 22.1 °F 67% 29.86 in 10.0 mi WNW 8.1 mph - N/A   Clear
4:35 AM 32.2 °F 25.0 °F 22.1 °F 66% 29.86 in 10.0 mi WNW 8.1 mph - N/A   Clear
4:55 AM 32.0 °F 24.2 °F 22.5 °F 68% 29.86 in 10.0 mi WNW 9.2 mph - N/A   Clear
5:15 AM 32.0 °F 24.2 °F 22.5 °F 68% 29.86 in 10.0 mi WNW 9.2 mph - N/A   Clear
5:35 AM 31.6 °F 23.7 °F 22.1 °F 68% 29.86 in 10.0 mi WNW 9.2 mph - N/A   Clear
5:55 AM 31.1 °F 23.7 °F 22.5 °F 70% 29.86 in 10.0 mi WNW 8.1 mph - N/A   Clear
6:15 AM 32.0 °F 24.8 °F 23.0 °F 69% 29.86 in 10.0 mi WNW 8.1 mph - N/A   Scattered Clouds
6:35 AM 31.5 °F 24.9 °F 23.0 °F 71% 29.86 in 10.0 mi WNW 6.9 mph - N/A   Unknown
6:55 AM 32.2 °F 24.4 °F 22.5 °F 67% 29.87 in 10.0 mi WNW 9.2 mph - N/A   Unknown
7:15 AM 32.0 °F 25.6 °F 22.5 °F 68% 29.88 in 10.0 mi West 6.9 mph - N/A   Unknown
7:35 AM 32.0 °F 25.6 °F 22.1 °F 67% 29.89 in 10.0 mi WNW 6.9 mph - N/A   Unknown
7:55 AM 33.3 °F 27.1 °F 23.0 °F 66% 29.89 in 10.0 mi West 6.9 mph - N/A   Unknown
8:15 AM 33.8 °F 28.6 °F 23.0 °F 65% 29.89 in 10.0 mi WNW 5.8 mph - N/A   Overcast
8:35 AM 34.9 °F 28.3 °F 23.4 °F 63% 29.89 in 10.0 mi West 8.1 mph - N/A   Unknown
8:55 AM 34.9 °F 29.0 °F 23.4 °F 63% 29.90 in 10.0 mi West 6.9 mph - N/A   Scattered Clouds
9:15 AM 38.1 °F 33.7 °F 23.0 °F 55% 29.90 in 10.0 mi West 5.8 mph - N/A   Unknown
9:35 AM 40.5 °F 35.1 °F 22.1 °F 48% 29.90 in 10.0 mi West 8.1 mph - N/A   Unknown
9:55 AM 42.8 °F 38.0 °F 20.8 °F 42% 29.90 in 10.0 mi West 8.1 mph - N/A   Unknown
10:15 AM 45.0 °F 40.6 °F 18.1 °F 34% 29.90 in 10.0 mi WNW 8.1 mph - N/A   Clear
10:35 AM 46.8 °F - 17.8 °F 32% 29.90 in 10.0 mi West 8.1 mph - N/A   Clear
10:55 AM 47.8 °F - 19.6 °F 33% 29.91 in 10.0 mi West 9.2 mph - N/A   Clear
11:15 AM 49.1 °F - 18.1 °F 29% 29.91 in 10.0 mi WNW 10.4 mph - N/A   Clear
11:35 AM 50.4 °F - 18.9 °F 29% 29.90 in 10.0 mi West 11.5 mph - N/A   Scattered Clouds
11:55 AM 48.6 °F - 19.6 °F 32% 29.90 in 10.0 mi West 10.4 mph - N/A   Unknown
12:15 PM 51.4 °F - 21.0 °F 30% 29.89 in 10.0 mi West 16.1 mph 19.6 mph N/A   Clear
12:35 PM 52.5 °F - 20.1 °F 28% 29.88 in 10.0 mi West 16.1 mph 20.7 mph N/A   Scattered Clouds
12:55 PM 53.4 °F - 21.0 °F 28% 29.87 in 10.0 mi West 13.8 mph 17.3 mph N/A   Scattered Clouds
1:15 PM 55.2 °F - 21.4 °F 27% 29.87 in 10.0 mi West 11.5 mph 18.4 mph N/A   Mostly Cloudy
1:35 PM 54.3 °F - 18.7 °F 25% 29.85 in 10.0 mi WNW 13.8 mph 17.3 mph N/A   Mostly Cloudy
1:55 PM 53.6 °F - 20.7 °F 28% 29.85 in 10.0 mi WNW 10.4 mph 20.7 mph N/A   Mostly Cloudy
2:15 PM 53.8 °F - 21.7 °F 29% 29.84 in 10.0 mi West 10.4 mph - N/A   Mostly Cloudy
2:35 PM 53.6 °F - 23.4 °F 31% 29.84 in 10.0 mi WSW 12.7 mph 18.4 mph N/A   Mostly Cloudy
2:55 PM 52.9 °F - 24.1 °F 33% 29.84 in 10.0 mi WSW 10.4 mph - N/A   Unknown
3:15 PM 52.9 °F - 25.5 °F 35% 29.84 in 10.0 mi West 12.7 mph - N/A   Overcast
3:35 PM 52.9 °F - 26.4 °F 36% 29.83 in 10.0 mi West 10.4 mph - N/A   Overcast
3:55 PM 53.2 °F - 27.3 °F 37% 29.83 in 10.0 mi WSW 9.2 mph - N/A   Unknown
4:15 PM 53.4 °F - 27.5 °F 37% 29.82 in 10.0 mi WSW 12.7 mph 18.4 mph N/A   Overcast
4:35 PM 52.9 °F - 27.9 °F 38% 29.82 in 10.0 mi WSW 12.7 mph 18.4 mph N/A   Mostly Cloudy
4:55 PM 52.3 °F - 28.6 °F 40% 29.82 in 10.0 mi WSW 11.5 mph - N/A   Overcast
5:15 PM 51.1 °F - 29.5 °F 43% 29.81 in 10.0 mi WSW 5.8 mph - N/A   Overcast
5:35 PM 50.4 °F - 31.3 °F 48% 29.81 in 10.0 mi WSW 4.6 mph - N/A   Unknown
5:55 PM 49.6 °F - 31.5 °F 50% 29.81 in 10.0 mi SW 4.6 mph - N/A   Unknown
6:15 PM 48.2 °F - 31.1 °F 52% 29.81 in 10.0 mi Calm Calm - N/A   Unknown
6:35 PM 47.5 °F - 30.9 °F 53% 29.82 in 10.0 mi Calm Calm - N/A   Unknown
6:55 PM 47.5 °F - 30.9 °F 53% 29.82 in 10.0 mi ENE 3.5 mph - N/A   Unknown
7:15 PM 45.5 °F - 32.0 °F 59% 29.83 in 10.0 mi Calm Calm - N/A   Unknown
7:35 PM 45.0 °F 41.8 °F 32.5 °F 62% 29.82 in 10.0 mi ENE 5.8 mph - N/A   Unknown
7:55 PM 46.0 °F 44.8 °F 31.8 °F 58% 29.83 in 10.0 mi NE 3.5 mph - N/A   Unknown
8:15 PM 45.9 °F - 32.0 °F 58% 29.82 in 10.0 mi Calm Calm - N/A   Unknown
8:35 PM 44.6 °F - 32.0 °F 61% 29.83 in 10.0 mi Calm Calm - N/A   Unknown
8:55 PM 42.4 °F - 32.9 °F 69% 29.83 in 10.0 mi Calm Calm - N/A   Unknown
9:15 PM 43.0 °F - 32.4 °F 66% 29.83 in 10.0 mi Calm Calm - N/A   Unknown
9:35 PM 42.3 °F - 32.0 °F 67% 29.83 in 10.0 mi Calm Calm - N/A   Unknown
9:55 PM 38.7 °F - 31.1 °F 74% 29.83 in 10.0 mi Calm Calm - N/A   Unknown
10:15 PM 39.7 °F - 31.6 °F 73% 29.83 in 10.0 mi Calm Calm - N/A   Clear
10:35 PM 38.7 °F - 31.5 °F 75% 29.83 in 10.0 mi Calm Calm - N/A   Clear
10:55 PM 39.4 °F - 31.3 °F 73% 29.82 in 10.0 mi Calm Calm - N/A   Clear
11:15 PM 36.7 °F - 31.5 °F 81% 29.82 in 10.0 mi Calm Calm - N/A   Clear
11:35 PM 36.3 °F 28.9 °F 31.6 °F 83% 29.83 in 10.0 mi North 10.4 mph - N/A   Clear
11:55 PM 36.3 °F 30.8 °F 31.1 °F 81% 29.83 in 10.0 mi North 6.9 mph - N/A   Clear